Вернуться в каталог

NOAA 16 DEB

АктивенPO
NORAD 42378·DEBRIS·🇺🇸 United States

Запущен Sep 21, 2000 с Vandenberg Space Force Base

Loading…

Ближайшие Пролёты (ближайшие 24 часа)

TLE

СвежийSource: Space-Track

Эпоха: Sep 14, 2026, 21:17 UTC

1 42378U 00055RW  26257.88720991  .00005412  00000-0  14653-2 0  9993
2 42378  98.8741  50.8732 0018014 218.0298 141.9623 14.48039636547288

Отслеживайте NOAA 16 DEB в реальном времени с AllMySat

Download on the App Store